Location: Foulangues
(49.2748°N, 2.3151°E)
Time: 15:34:21
(UTC+00:00)

Daily predictions for brighter satellites

Satellite Brightness Start Highest point End
(mag) Time Altitude Azimuth Time Altitude Azimuth Time Altitude Azimuth
IRS-1A Rocket 4.4 20:23:43 10° SSE 20:29:21 73° ENE 20:35:08 10° NNW
Okean-O 3.0 20:25:17 10° S 20:29:40 69° WSW 20:34:05 10° NNW
ARGOS Delta rocket 4.4 20:25:45 10° S 20:30:21 60° W 20:35:17 10° NNW
Gbstr 26 Del rocket 3.2 20:27:51 10° WSW 20:32:07 88° SSE 20:37:23 10° ENE
Timation 2 Rocket 4.3 20:26:34 10° S 20:32:29 43° ESE 20:38:12 10° NE
CZ-4C R/B 3.3 20:29:38 10° NNE 20:33:18 54° E 20:36:47 10° S
Cosmos 1125 Rocket 4.4 20:30:10 10° SSE 20:34:45 31° E 20:39:21 10° NE
USA 276 1.9 20:36:31 10° W 20:39:26 77° SSW 20:42:28 10° ESE
Cosmos 2084 3.6 20:38:50 10° SSW 20:42:47 44° SE 20:46:35 10° NE
SPOT 3 Rocket 3.9 20:38:59 10° SE 20:44:01 52° ENE 20:49:05 10° N
NOSS 2-2 (E) 2.9 20:47:11 10° SSW 20:50:21 47° SE 20:53:23 10° NE
NOSS 2-2 (C) 2.6 20:47:29 10° SW 20:50:40 77° SE 20:53:49 10° NE
In-Cosmos 22 Rocket 4.3 20:47:12 10° S 20:52:50 62° E 20:58:22 10° NNE
Landsat 4 4.4 20:49:58 11° SE 20:52:55 34° ENE 20:56:04 10° N
Nadezhda 3 Rocket 4.0 20:46:57 10° N 20:53:09 85° E 20:59:19 10° S
BREEZE-M DEB (TANK) 3.3 20:51:22 10° W 20:54:07 66° SSW 21:01:21 10° ESE
Cosmos 1544 Rocket 4.4 20:50:23 10° N 20:54:25 36° ENE 20:58:03 12° SE
NOSS 2-3 (E) 3.2 20:52:56 10° SSW 20:56:30 55° SE 21:00:29 10° NE
Cosmos 1844 4.1 20:51:28 10° SW 20:57:15 73° WNW 21:03:03 10° NNE
Terra 1.8 20:53:08 10° SSE 20:57:52 89° ENE 21:02:37 10° NNW
Meteor 1-21 Rocket 4.3 20:58:45 10° SSW 21:04:18 79° WNW 21:09:52 10° N
USA 305 4.1 21:01:32 10° WNW 21:05:07 36° N 21:08:22 10° ENE
GP-B 4.4 21:02:51 10° NNW 21:06:59 40° W 21:11:06 10° SSW
ATLAS CENTAUR R/B 1.6 21:03:26 10° NW 21:07:21 59° SW 21:10:52 14° SSE
Cosmos 1437 Rocket 3.8 21:07:19 15° SE 21:09:34 26° E 21:12:36 10° NE
Meteor 2-1 Rocket 4.2 21:07:56 10° NNW 21:13:37 89° WSW 21:18:58 11° S
Cosmos 1833 Rocket 2.9 21:07:59 10° NNW 21:13:38 63° ENE 21:18:22 15° SE
NOSS 2-3 (C) 3.1 21:10:37 10° SW 21:14:14 80° SE 21:18:21 10° NE
Cosmos 1455 Rocket 3.7 21:10:37 10° NNW 21:14:56 55° W 21:19:11 10° S
Cosmos 1975 Rocket 3.2 21:14:16 10° S 21:18:44 83° W 21:23:14 10° N
Cosmos 1025 Rocket 4.3 21:15:14 10° SW 21:19:15 41° WNW 21:23:18 10° N
Cosmos 44 3.9 21:14:42 10° S 21:19:36 40° ESE 21:24:19 10° NE
Orbus 7S? 4.0 21:17:20 10° WNW 21:19:43 26° SW 21:21:20 16° S
Lacrosse 5 2.5 21:16:44 10° WSW 21:21:44 61° NNW 21:26:46 10° NE
ERS-1 Rocket 3.8 21:18:50 10° S 21:23:40 48° W 21:28:32 10° NNW
Spot 2 Rocket 3.9 21:19:34 10° S 21:24:37 64° WSW 21:29:43 10° NNW
Cosmos 220 Rocket 3.9 21:20:55 10° NNW 21:25:05 85° ENE 21:28:09 18° SSE
Cosmos 2082 Rocket 3.6 21:21:43 10° NNW 21:26:37 29° NE 21:31:28 10° ESE
NOSS 2-2 (D) 3.0 21:24:56 10° SW 21:28:08 70° NW 21:31:17 10° NE
ATLAS 5 CENTAUR R/B 3.4 21:25:20 10° W 21:28:20 28° NNW 21:31:44 10° NNE
USA 307 3.9 21:24:39 10° W 21:28:23 41° N 21:31:56 10° ENE
Cosmos 2218 Rocket 4.3 21:23:42 14° SSE 21:28:48 49° E 21:34:42 10° NNE
Landsat 5 3.9 21:26:42 10° NNE 21:30:58 48° E 21:34:10 17° S
Cosmos 1844 Rocket 4.3 21:28:21 10° WSW 21:33:30 37° NW 21:38:41 10° NNE
Cosmos 2278 Rocket 3.2 21:31:13 17° SSE 21:34:27 28° ESE 21:39:13 10° NE
Cosmos 1606 3.0 21:31:49 10° NNW 21:35:20 57° W 21:38:05 15° S
MetOp-A 3.7 21:35:02 19° SSE 21:38:23 71° ENE 21:42:41 10° N
Cosmos 2298 Rocket 4.2 21:33:32 10° S 21:38:43 57° ESE 21:43:56 10° NNE
Cosmos 2341 Rocket 4.0 21:33:38 11° S 21:39:42 73° E 21:46:03 10° NNE
ULPM Upper Stage 4.5 21:36:14 10° NNW 21:40:03 28° NNE 21:43:51 10° E
Cosmos 614 Rocket 4.0 21:36:02 10° NNW 21:41:07 68° ENE 21:44:35 20° SE
H-2A R/B 4.4 21:44:33 11° E 21:46:51 17° ENE 21:49:20 10° NNE
Cosmos 1869 4.0 21:43:29 10° NNW 21:47:09 47° W 21:50:08 15° SSW
CZ-4C R/B 4.0 21:43:58 10° NW 21:49:56 36° NNE 21:57:12 10° E
Cosmos 1536 Rocket 3.6 21:47:10 21° SSE 21:49:56 58° E 21:54:12 10° NNE
Ariane Rocket 4.0 21:47:25 10° SSW 21:52:06 41° W 21:56:54 10° NNW
ISS -3.1 21:49:57 10° WNW 21:53:13 54° N 21:56:30 10° E
COSMOS 2406 4.3 21:51:06 10° NNW 21:56:22 37° NE 22:00:48 14° ESE
USA 290 3.7 21:58:15 21° ESE 21:58:15 21° ESE 22:00:41 10° NE
ARIANE 5 R/B 3.1 21:58:54 23° SE 22:01:23 49° ENE 22:05:42 10° N
GENESIS II 4.3 21:58:35 10° NW 22:02:04 52° SW 22:03:31 30° S
Cosmos 1269 Rocket 4.5 21:58:34 10° NNW 22:03:47 54° ENE 22:07:06 22° SE
BREEZE-M DEB (TANK) 3.7 21:53:45 10° WNW 22:04:08 43° SW 22:06:11 25° SSE
Cosmos 1727 Rocket 4.2 21:58:24 10° N 22:04:43 62° ENE 22:08:48 23° SSE
ATLAS 3B R/B 3.7 22:01:26 21° SSE 22:04:45 29° ESE 22:11:02 10° NE
Cosmos 2228 3.4 22:01:19 10° NNW 22:05:26 56° W 22:08:06 20° SSW
Geosat 4.4 22:04:57 10° NNE 22:09:56 66° NW 22:14:54 10° SW
Cosmos 1943 Rocket 2.9 22:08:20 24° SSE 22:10:48 34° ESE 22:15:50 10° NE
USA 276 3.6 22:11:00 10° W 22:13:09 21° SW 22:13:09 21° SW
Cosmos 1821 Rocket 4.1 22:09:49 21° S 22:14:01 64° E 22:20:19 10° NNE
USA 281 4.5 22:10:07 10° ESE 22:15:50 33° NE 22:21:34 10° NNW
Gbstr 26 Del rocket 3.8 22:14:20 10° W 22:19:03 66° N 22:24:56 10° E
Cosmos 2058 4.2 22:19:03 22° ESE 22:20:07 25° E 22:23:29 10° NE
Cosmos 2150 Rocket 4.3 22:15:01 10° SSW 22:20:24 71° WNW 22:25:53 10° NNE
ALOS 2 3.9 22:19:19 19° ESE 22:21:34 30° ENE 22:25:24 10° N
Cosmos 2084 Rocket 3.4 22:21:31 10° NW 22:25:30 67° NE 22:27:21 29° ESE
Spot 4 4.4 22:23:23 24° SE 22:25:56 47° ENE 22:30:36 10° N
NOSS 3-1 (C) 3.0 22:24:27 12° SSW 22:29:02 74° SE 22:34:58 10° NE
Cosmos 1544 4.5 22:30:25 13° ENE 22:30:25 13° ENE 22:30:58 10° NE
SeaSat 1 3.0 22:26:56 22° ESE 22:29:58 53° NE 22:34:46 10° NNW
Cosmos 1812 2.6 22:31:59 10° N 22:35:32 62° ENE 22:36:28 43° SE
Terra 4.3 22:34:07 10° WSW 22:36:08 13° W 22:38:10 10° WNW
USA 305 3.6 22:34:27 10° WNW 22:37:51 38° N 22:40:35 12° E
Cosmos 1238 Rocket 3.9 22:38:02 10° NNE 22:41:03 29° ENE 22:42:01 25° ESE
Aureole 2 4.1 22:41:11 51° SSW 22:41:53 90° SE 22:45:16 10° NNE
BREEZE-M R/B 3.8 22:37:54 10° WSW 22:42:15 76° SSE 22:56:59 10° ENE
PSLV R/B 3.8 22:39:32 10° NNE 22:43:31 69° ESE 22:44:50 39° S
Cosmos 1892 Rocket 3.6 22:45:05 36° SSE 22:46:48 68° E 22:51:13 10° NNE
Cosmos 1140 Rocket 3.7 22:47:10 10° NNW 22:52:16 62° ENE 22:54:48 29° SE
Cosmos 1833 Rocket 4.2 22:52:38 10° NW 22:57:05 25° WSW 23:00:03 16° SW
MINOTAUR 4 R/B 3.4 22:54:16 10° NNE 22:57:02 70° E 22:57:02 70° E
Cosmos 2239 Rocket 4.5 22:55:30 26° S 22:59:10 88° WNW 23:05:27 10° N
SL-08 R/B 4.4 22:57:34 27° S 23:01:09 87° W 23:07:19 10° N
BREEZE-M DEB (TANK) 3.5 22:58:32 10° W 23:01:27 76° SSW 23:09:14 10° ESE
USA 307 3.5 22:58:24 10° WNW 23:02:06 45° NNE 23:05:30 10° E
Cosmos-2242 3.8 23:00:27 10° N 23:04:26 39° ENE 23:05:51 29° ESE
Cosmos 2123 Rocket 4.0 22:58:15 10° N 23:04:34 82° E 23:07:51 31° SSE
Cosmos 1606 Rocket 4.5 23:01:15 10° NNW 23:05:16 38° W 23:07:01 26° SW
CENTAUR R/B 4.4 22:58:19 10° NW 23:05:24 39° NNE 23:13:35 10° E
Lacrosse 5 3.6 23:00:49 10° WNW 23:05:27 35° N 23:10:06 10° ENE
NOSS 3-1 (A) 3.0 23:03:57 30° SSW 23:06:27 66° SE 23:12:22 10° NE
Cosmos 1726 Rocket 4.1 23:03:19 10° NNW 23:07:30 48° W 23:09:06 32° SSW
NOSS 8 (F) 4.2 23:05:31 10° NW 23:08:35 81° SW 23:09:06 61° SSE
Cosmos 2082 Rocket 2.3 23:05:32 10° NW 23:11:05 61° WSW 23:13:28 33° S
Cosmos 1515 4.1 23:11:02 10° N 23:14:22 42° ENE 23:14:57 38° ESE
Cosmos 2278 Rocket 2.8 23:12:59 12° SW 23:18:12 55° NW 23:23:47 10° NNE
ULPM Upper Stage 2.7 23:15:29 10° NW 23:19:50 69° SW 23:20:59 46° SSE
Cosmos 2369 Rocket 3.4 23:19:37 23° SE 23:21:01 25° ESE 23:25:30 10° NE
PSLV R/B 4.0 23:17:03 10° NNE 23:21:14 47° E 23:22:20 38° SE
H-2A R/B 2.6 23:20:31 42° SSW 23:21:25 53° WSW 23:25:12 10° NNW
Cosmos 489 Rocket 4.4 23:24:24 31° S 23:27:28 73° ESE 23:33:41 10° NNE
ISS -4.0 23:26:47 10° WNW 23:30:06 81° SSW 23:30:09 81° S
USA 290 4.1 23:30:56 18° W 23:32:27 26° WNW 23:35:13 10° N
Cosmos 2058 Rocket 3.5 23:29:07 10° NNW 23:33:19 49° W 23:34:37 36° SW
Cosmos 1782 2.6 23:30:03 10° N 23:33:52 83° ENE 23:34:35 57° SSE
USA 229 DEB 4.1 23:32:18 32° SSE 23:34:19 40° ESE 23:40:30 10° NE
USA 229 4.1 23:32:27 32° SSE 23:34:27 40° ESE 23:40:37 10° NE
CRYOSAT 2 4.3 23:31:13 10° N 23:36:08 88° W 23:37:58 39° S
Cosmos 1862 4.1 23:35:38 34° ESE 23:36:12 36° E 23:39:44 10° NNE
Cosmos 1378 2.8 23:34:44 10° N 23:37:57 64° E 23:38:06 62° E
ARIANE 5 R/B 4.4 23:36:22 17° WSW 23:38:02 21° W 23:41:26 10° NW
Cosmos 482 Debris 4.4 23:33:57 10° W 23:38:31 70° NNW 23:41:50 10° ENE
CZ-4C R/B 3.0 23:32:09 10° NW 23:39:12 90° SW 23:45:35 20° SE
COSMOS 2455 4.1 23:34:19 10° NNW 23:39:59 39° NE 23:45:36 10° ESE
Meteor 2-2 Rocket 4.2 23:35:00 10° N 23:40:45 85° ENE 23:43:24 34° SSE
COSMOS 2406 3.7 23:35:23 10° NW 23:40:47 46° WSW 23:42:50 32° SSW
Cosmos 1934 Rocket 4.1 23:39:12 28° SSW 23:42:39 69° W 23:48:52 10° N
Cosmos 2221 3.9 23:41:17 10° N 23:45:04 30° ENE 23:46:52 22° ESE
Cosmos 2285 Rocket 4.1 23:45:23 10° NNW 23:51:51 76° ENE 23:55:34 27° SSE
Cosmos 1943 Rocket 3.0 23:49:48 14° SW 23:54:24 47° NW 23:59:50 10° NNE
